Погода в Бибикове

Россия / Тамбовская область     53°08′04″N   40°56′08″E
темп.,
°C
ветер,
м/с
пор.,
м/с
влажн.,
%
обл.,
%
осадки,
мм/ч
давл.,
гПа
погр.,
м
11 мая, вт
вт1100:00+8ссв91993100 0.0 1019423
03:00+8ссв82093100 0.0 1019459
06:00+9св81794100 0.0 1019456
09:00+14всв71283100 0.0 1020720
12:00+10вюв51293100 0.9 1023632
15:00+15вюв69614 1.0 10241462
18:00+14вюв59631 0.0 1025589
21:00+9ююв35830 0.0 102782
12 мая, ср
ср1200:00+7вюв11865 0.0 102710
03:00+7св338578 0.0 102741
06:00+8св3688100 0.4 1025153
09:00+8сз3598100 3.7 1023188
12:00+8юз3399100 3.3 1021188
15:00+9зюз349370 6.2 1021358
18:00+11юв348151 0.0 1021630
21:00+8в3592100 0.0 102266
13 мая, чт
чт1300:00+8в47945 0.0 1021120
03:00+8в35956 0.0 102181
06:00+10в1290100 0.0 102084
09:00+10сз2499100 5.9 1018100
12:00+12с4594100 5.8 1018318
15:00+13ссв229493 5.8 1019305
18:00+15в0189100 0.0 1018188
21:00+11юв11935 0.0 101810
14 мая, пт
пт1400:00+11в119135 0.0 101810
03:00+10в3395100 0.0 101939
06:00+12в3596100 0.0 1019121
09:00+18вюв56826 0.0 1018396
12:00+23юв5763100 0.0 10171078
15:00+25юв68565 0.0 10161461
18:00+23юв610737 0.0 1014513
21:00+18юв4138844 0.0 1014224
15 мая, сб
сб1500:00+17юв4128712 0.0 1014202
03:00+15юв49905 0.0 1014159
06:00+15юв4127914 0.0 1013268
09:00+19ююв71464100 0.0 1013604
12:00+22ююв81559100 0.0 1012913
15:00+23ю71162100 0.0 1012989
18:00+22ю61167100 0.0 1012732
21:00+16ююв469099 4.8 101195